Location: Bourg-d�Oueil
(42.8588°N, 0.4991°E)
Time: 14:45:28
(UTC+00:00)

COSMOS 2428 - Pass Details

Date: 16 June 2021
Orbit: 845 x 858 km, 70.9° (Epoch: 01 August)

Event Time Altitude Azimuth Distance (km) Brightness Sun altitude
Exits shadow 22:01:01 32° 158° (SSE) 1,428 3.3 -18.4°
Maximum altitude 22:03:11 47° 107° (ESE) 1,122 3.0 -18.6°
Drops below altitude 10° 22:08:39 10° 36° (NE) 2,499 5.5 -19.1°
Sets 22:11:12 0° 30° (NNE) 3,440 6.3 -19.3°
